(238) Hypatia
ephemeris date magn radius delta ra dec elong phase
Today11 May 202513.82.926 AU3.205 AU07h40m+12°30'65.0°18.2°
Opposition31 Mar 202612.33.149 AU2.151 AU12h44m-02°16'177.6°0.8°
(238) Hypatia - 2025-05-11
astro.vanbuitenen.nl


 
-1 year
-1 month
-1 day
Now
+1 day
+1 month
+1 year

The interactive orbit chart above shows the body's path through the solar system and its position at the given date. Green and blue lines are shown perpendicular to the ecliptic plane: Green if the path is above the ecliptic plane, blue if it is below. (Left-click and drag to rotate the view; Right-click and drag to move the view; Use scroll wheel to zoom in our out.)

The orbital elements of Hypatia are:

            e (Eccentricity)                : 0.0917518
            a (Semimajor axis)              : 2.9058448
            i (Inclination)                 : 12.40444
            Ω (Longitude of ascending node) : 183.76388
            ω (Argument of perihelion)      : 209.43606
            M (Mean anomaly)                : 87.84324
            Epoch                           : 2025 May 05

            L (Longitude of perihelion)     : 212.62424
            B (Latitude of perihelion)      : -6.05997
            P (Orbital period in years)     : 4.95            
        

The light curve chart below shows the estimated development of the minor planet's magnitude.


The all-sky chart below shows the path of the minor planet over the same period as the light curve. The current position is marked yellow.





The following chart shows the path of the minor planet in the next few days. The field of view is optimized for (~10x50) binoculars and finderscopes. A more printer-friendly version of the same chart can be found below.




Ephemerides:
Date       Time       RA (2000)    DEC (2000)    delta   radius  elong  phase   PA    magn
2025-05-11 00:00 UT   07 40 59.3   +12 30 33     3.205    2.926   65.0   18.2   104   13.8 
2025-05-11 15:08 UT   07 41 46.8   +12 30 44     3.214    2.926   64.6   18.2   104   13.8 
2025-05-12 00:00 UT   07 42 14.7   +12 30 50     3.218    2.927   64.4   18.1   104   13.8 
2025-05-13 00:00 UT   07 43 30.5   +12 31 01     3.231    2.928   63.7   18.0   104   13.9 
2025-05-14 00:00 UT   07 44 46.9   +12 31 06     3.244    2.928   63.1   17.9   105   13.9 
2025-05-15 00:00 UT   07 46 03.6   +12 31 07     3.257    2.929   62.4   17.8   105   13.9 
2025-05-16 00:00 UT   07 47 20.7   +12 31 02     3.270    2.930   61.8   17.7   105   13.9 
2025-05-17 00:00 UT   07 48 38.3   +12 30 51     3.283    2.931   61.1   17.6   105   13.9 
2025-05-18 00:00 UT   07 49 56.3   +12 30 36     3.295    2.932   60.5   17.5   105   13.9 
2025-05-19 00:00 UT   07 51 14.6   +12 30 15     3.308    2.933   59.8   17.3   106   13.9 
2025-05-20 00:00 UT   07 52 33.4   +12 29 49     3.320    2.934   59.2   17.2   106   13.9 
2025-05-21 00:00 UT   07 53 52.5   +12 29 17     3.333    2.935   58.6   17.1   106   13.9 
2025-05-22 00:00 UT   07 55 12.0   +12 28 41     3.345    2.936   57.9   17.0   106   13.9 
2025-05-23 00:00 UT   07 56 31.8   +12 27 59     3.358    2.937   57.3   16.9   107   13.9 
2025-05-24 00:00 UT   07 57 52.0   +12 27 12     3.370    2.938   56.7   16.7   107   13.9 
2025-05-25 00:00 UT   07 59 12.5   +12 26 19     3.382    2.939   56.0   16.6   107   13.9 
2025-05-26 00:00 UT   08 00 33.4   +12 25 22     3.394    2.939   55.4   16.5   107   13.9 
2025-05-27 00:00 UT   08 01 54.6   +12 24 19     3.406    2.940   54.8   16.3   107   13.9 
2025-05-28 00:00 UT   08 03 16.2   +12 23 11     3.418    2.941   54.2   16.2   108   13.9 
2025-05-29 00:00 UT   08 04 38.0   +12 21 58     3.429    2.942   53.5   16.1   108   13.9 
2025-05-30 00:00 UT   08 06 00.1   +12 20 39     3.441    2.943   52.9   15.9   108   13.9 
2025-05-31 00:00 UT   08 07 22.5   +12 19 16     3.453    2.944   52.3   15.8   108   13.9 
2025-06-01 00:00 UT   08 08 45.2   +12 17 48     3.464    2.945   51.7   15.7   108   13.9 
2025-06-02 00:00 UT   08 10 08.2   +12 16 14     3.476    2.946   51.1   15.5   109   13.9 
2025-06-03 00:00 UT   08 11 31.4   +12 14 36     3.487    2.947   50.4   15.4   109   13.9 
2025-06-04 00:00 UT   08 12 54.9   +12 12 52     3.498    2.948   49.8   15.2   109   13.9 
2025-06-05 00:00 UT   08 14 18.6   +12 11 04     3.509    2.948   49.2   15.1   109   14.0 
2025-06-06 00:00 UT   08 15 42.5   +12 09 10     3.520    2.949   48.6   15.0   110   14.0 


    Terminology:
            
    delta:  distance between minor planet and earth in AU
    radius: distance between minor planet and sun in AU
    magn:   magnitude (brightness) estimate    
    ra:     right ascension in hours (24h = 360deg)
    dec:    declination in degrees
    elong:  elongation in degrees (angle sun-earth-minor planet)    
    phase:  phase angle in degrees (angle sun-minor planet-earth)        
    AU:     Astronomical Unit (mean distance between earth and sun: 149597870.7 km
    

Orbital elements provided by the MPC (Minor Planet Center).
Calculations by a modified version of AAPlus, a C# implementation of the AA+ project by PJ Naughter from the algorithms presented in the book "Astronomical Algorithms" by Jean Meeus.
NGC2000 dso catalog and star labels from VizieR as provided by the Strasbourg astronomical Data Center.
Tycho2 catalog from the ESO archive.